sat.trackr.live / text

‹ back to catalog

STARLINK-36773

NORAD 67801 · 2026-032E

PAYLOAD ACTIVE UNKNOWN

§ Identity

Operator
Country
US
Launch date
2026-02-15
Launch site
AFWTR
Launch vehicle
Mass (kg)
RCS (m²)

Purposes: comms

External: N2YO · Heavens-Above · Gunter

§ Orbital elements

Epoch: 2026-09-19T06:41:49.962336Z

Period
93.91 min
Inclination
97.2854°
Eccentricity
0.0001619
Mean motion
15.33444219 rev/d
Perigee alt
464.4 km
Apogee alt
466.7 km
Semi-major
6,843.7 km
B*
4.2996e-4
RAAN
88.6348°
Arg perigee
88.6158°
Mean anomaly
271.5270°
Rev number
3,462

§ Raw data

STARLINK-367731 67801U 26032E   26262.27905049  .00013831  00000+0  42996-3 0  99972 67801  97.2854  88.6348 0001619  88.6158 271.5270 15.33444219 34624

JSON: /api/v1/satellites/67801 · /tle

For live sub-satellite position, see the globe view (requires WebGL).

§ Visibility from observer

Set your observer location to see the next 7 days of passes ≥ 10°. The values pass through the URL so the page stays shareable.

No JS? Fill the form by hand. The geolocation button needs JavaScript.